HEBOWX Weather Reports


Display with metric or nautical units.
time (UTC)temp
F
wind
direction
speed
MPH
gust
MPH
rain 1hr
in
rain 24hr
in
rain mn
in
humidity
%
barometer
mb
20260904171054 48 120 0.0 4.0 0.00 1.02 0.39 81 1009.8
20260904170554 47 92 0.0 2.0 0.00 1.02 0.39 81 1008.9
20260904170054 47 137 0.0 4.0 0.00 1.02 0.39 81 1009.3
20260904165554 47 0 0.0 4.0 0.00 1.02 0.39 81 1008.3
20260904165054 47 103 0.0 4.0 0.00 1.02 0.39 81 1008.5
20260904164554 47 120 0.0 2.0 0.00 1.02 0.39 81 1008.5
20260904164054 47 120 0.0 2.0 0.00 1.07 0.39 81 1008.6
20260904163554 47 151 0.0 2.0 0.00 1.07 0.39 81 1008.2
20260904163054 47 0 0.0 2.0 0.00 1.07 0.39 81 1008.8
20260904162554 47 64 0.0 2.0 0.00 1.07 0.39 81 1008.2
20260904162054 47 0 0.0 0.0 0.00 1.07 0.39 80 1009.1
20260904161555 47 0 0.0 0.0 0.00 1.07 0.39 81 1008.9
20260904161054 48 0 0.0 0.0 0.00 1.07 0.39 81 1009.1
20260904160554 48 0 0.0 0.0 0.00 1.07 0.39 81 1008.2
20260904160054 49 57 0.0 5.0 0.00 1.07 0.39 81 1008.9
20260904155554 49 96 0.0 5.0 0.00 1.07 0.39 81 1008.4
20260904155054 48 106 0.0 5.0 0.00 1.07 0.39 81 1008.0
20260904154554 48 0 0.0 5.0 0.00 1.07 0.39 82 1009.1
20260904154054 48 130 0.0 5.0 0.00 1.17 0.39 82 1008.3
20260904153554 47 124 1.0 3.0 0.00 1.17 0.39 82 1007.8
20260904153054 46 63 0.0 2.0 0.00 1.17 0.39 83 1008.5
20260904152554 46 63 0.0 1.0 0.00 1.17 0.39 82 1007.8
20260904152054 46 21 0.0 3.0 0.00 1.17 0.39 81 1007.8
20260904151554 46 0 0.0 3.0 0.00 1.17 0.39 81 1008.0
20260904151054 46 110 0.0 3.0 0.00 1.17 0.39 81 1008.7
20260904150554 46 98 0.0 5.0 0.00 1.17 0.39 81 1007.4
20260904150054 46 127 0.0 5.0 0.00 1.17 0.39 81 1008.2
20260904145554 46 165 0.0 5.0 0.00 1.17 0.39 81 1007.7
20260904145054 46 81 0.0 2.0 0.00 1.17 0.39 81 1007.3
20260904144554 46 82 0.0 1.0 0.00 1.17 0.39 81 1008.3
20260904144054 46 166 0.0 1.0 0.00 1.30 0.39 81 1007.2
20260904143554 46 84 0.0 2.0 0.00 1.30 0.39 81 1007.2
20260904143054 46 86 0.0 2.0 0.00 1.30 0.39 81 1007.4
20260904142554 46 91 0.0 2.0 0.00 1.30 0.39 81 1006.9
20260904142054 46 112 0.0 3.0 0.00 1.30 0.39 81 1006.9
20260904141554 46 102 0.0 3.0 0.00 1.30 0.39 81 1007.5
20260904141054 46 126 0.0 3.0 0.00 1.30 0.39 81 1007.3
20260904140554 46 0 0.0 0.0 0.00 1.30 0.39 81 1006.7
20260904140054 46 131 0.0 4.0 0.00 1.30 0.39 81 1006.7
20260904135554 46 54 0.0 4.0 0.00 1.30 0.39 81 1006.6
20260904135054 46 28 0.0 4.0 0.00 1.30 0.39 81 1006.6
20260904134554 46 148 0.0 1.0 0.00 1.30 0.39 81 1006.6
20260904134054 46 148 0.0 1.0 0.00 1.36 0.39 80 1006.5
20260904133554 46 148 0.0 1.0 0.00 1.36 0.39 81 1007.5
20260904133054 46 0 0.0 3.0 0.00 1.36 0.39 80 1006.6
20260904132554 45 70 0.0 3.0 0.00 1.36 0.39 81 1007.3
20260904132054 46 131 0.0 3.0 0.00 1.36 0.39 81 1006.4
20260904131554 46 110 0.0 2.0 0.00 1.36 0.39 81 1006.6
20260904131054 46 0 0.0 3.0 0.00 1.36 0.39 81 1007.6
20260904130554 46 106 0.0 3.0 0.00 1.36 0.39 81 1006.3
20260904130054 45 106 0.0 3.0 0.00 1.36 0.39 81 1006.2
20260904125554 46 109 0.0 2.0 0.00 1.36 0.39 81 1006.2
20260904125054 46 130 0.0 2.0 0.00 1.36 0.39 81 1006.2
20260904124554 46 110 0.0 3.0 0.00 1.36 0.39 81 1006.3
20260904124054 46 100 0.0 3.0 0.00 1.56 0.39 81 1006.4
20260904123554 46 35 0.0 3.0 0.00 1.56 0.39 81 1006.0
20260904123054 46 26 0.0 1.0 0.00 1.56 0.39 81 1006.0
20260904122554 46 75 0.0 1.0 0.00 1.56 0.39 81 1006.0
20260904122054 46 58 0.0 0.0 0.00 1.56 0.39 81 1006.0
20260904121554 46 0 0.0 0.0 0.00 1.56 0.39 81 1006.4
20260904121054 46 0 0.0 2.0 0.00 1.56 0.39 81 1007.6
20260904120554 46 0 0.0 2.0 0.00 1.56 0.39 81 1006.0
20260904120054 46 58 0.0 2.0 0.00 1.56 0.39 81 1006.4
20260904115554 46 0 0.0 0.0 0.00 1.56 0.39 82 1005.9
20260904115054 46 82 0.0 2.0 0.01 1.56 0.39 81 1005.9
20260904114554 46 100 0.0 2.0 0.01 1.56 0.39 81 1005.8
20260904114054 46 107 0.0 2.0 0.01 1.71 0.39 81 1006.2
20260904113554 46 121 0.0 6.0 0.01 1.71 0.39 81 1005.7
20260904113054 46 67 0.0 6.0 0.02 1.71 0.39 81 1006.0
20260904112554 46 119 0.0 6.0 0.02 1.71 0.39 80 1005.4
20260904112054 46 116 1.0 5.0 0.02 1.71 0.39 80 1005.4
20260904111554 45 140 0.0 5.0 0.02 1.71 0.39 80 1005.3
20260904111053 46 103 0.0 5.0 0.02 1.71 0.39 80 1006.3
20260904110554 45 144 0.0 5.0 0.02 1.71 0.39 80 1005.3
20260904110054 45 127 0.0 3.0 0.02 1.71 0.39 80 1005.6
20260904105553 46 100 1.0 5.0 0.02 1.71 0.39 80 1005.3
20260904105053 46 152 0.0 5.0 0.01 1.71 0.39 80 1005.6
20260904104553 46 107 1.0 5.0 0.01 1.71 0.38 80 1005.1
20260904104053 46 159 0.0 4.0 0.01 1.92 0.38 80 1005.6
20260904103553 46 109 0.0 4.0 0.01 1.92 0.38 80 1005.1
20260904103053 46 29 0.0 7.0 0.01 1.92 0.38 80 1005.8
20260904102553 45 2 2.0 7.0 0.01 1.92 0.37 80 1005.1
20260904102053 45 117 1.0 7.0 0.01 1.92 0.37 80 1005.1
20260904101554 45 119 0.0 5.0 0.01 1.92 0.37 80 1005.4
20260904101053 45 100 0.0 5.0 0.01 1.92 0.37 80 1005.8
20260904100553 45 75 1.0 5.0 0.01 1.92 0.37 81 1005.0
20260904100053 45 137 1.0 5.0 0.01 1.92 0.37 81 1005.6
20260904095553 46 96 0.0 4.0 0.01 1.92 0.37 81 1005.0
20260904094553 46 100 0.0 6.0 0.01 1.92 0.37 81 1005.6
20260904094053 45 98 1.0 6.0 0.01 2.02 0.37 81 1004.9
20260904093553 45 106 1.0 4.0 0.01 2.02 0.37 81 1005.3
20260904093053 45 88 0.0 4.0 0.01 2.02 0.37 80 1005.6
20260904092553 45 99 1.0 8.0 0.01 2.02 0.37 80 1004.9
20260904092053 45 91 1.0 8.0 0.01 2.02 0.36 81 1004.8
20260904091553 45 117 1.0 8.0 0.01 2.02 0.36 81 1004.9
20260904091053 45 155 1.0 5.0 0.01 2.02 0.36 80 1005.4
20260904090553 45 124 1.0 4.0 0.01 2.02 0.36 80 1004.8
20260904090053 46 137 0.0 5.0 0.01 2.02 0.36 80 1005.9
20260904085553 46 134 0.0 5.0 0.01 2.02 0.36 80 1004.8
20260904085053 46 257 1.0 5.0 0.01 2.02 0.36 81 1004.9
20260904084553 46 102 0.0 4.0 0.01 2.02 0.36 81 1004.9
20260904084053 46 116 1.0 6.0 0.01 2.01 0.36 81 1004.9
20260904083553 46 109 1.0 6.0 0.01 2.01 0.36 81 1004.9
20260904083053 46 134 2.0 6.0 0.00 2.01 0.35 80 1005.6
20260904082553 46 100 1.0 4.0 0.00 2.01 0.35 81 1005.0
20260904082053 46 110 1.0 6.0 0.00 2.01 0.35 81 1005.0
20260904081553 46 154 0.0 6.0 0.00 2.01 0.35 80 1005.1
20260904081053 46 102 0.0 6.0 0.00 2.01 0.35 80 1005.8
20260904080553 46 133 2.0 6.0 0.00 2.01 0.35 80 1004.9
20260904080053 46 86 0.0 4.0 0.00 2.01 0.35 79 1006.2
20260904075553 46 114 2.0 5.0 0.00 2.01 0.35 80 1005.0
20260904075053 46 120 1.0 5.0 0.00 2.01 0.35 80 1005.0
20260904074553 46 138 0.0 5.0 0.00 2.01 0.35 80 1005.1
20260904074054 46 106 0.0 3.0 0.00 2.05 0.35 80 1005.1
20260904073553 46 116 0.0 3.0 0.00 2.05 0.35 80 1005.1
20260904073053 46 70 0.0 3.0 0.00 2.05 0.35 80 1006.0
20260904072553 46 91 0.0 2.0 0.00 2.05 0.35 79 1005.0
20260904072053 46 110 0.0 5.0 0.00 2.05 0.35 80 1005.0
20260904071553 46 109 1.0 5.0 0.00 2.05 0.35 80 1004.9
20260904071053 46 82 1.0 5.0 0.00 2.05 0.35 80 1005.9
20260904070553 46 112 0.0 4.0 0.00 2.05 0.35 80 1004.9
20260904070053 46 86 0.0 4.0 0.00 2.05 0.35 79 1005.5
20260904065553 46 128 0.0 4.0 0.00 2.05 0.35 80 1004.9
20260904065053 46 114 0.0 3.0 0.00 2.05 0.35 80 1005.0
20260904064553 46 109 0.0 4.0 0.00 2.05 0.35 80 1005.7
20260904064053 46 117 0.0 4.0 0.00 2.06 0.35 80 1005.0
20260904063553 46 140 0.0 4.0 0.00 2.06 0.35 80 1005.0
20260904063053 46 84 0.0 3.0 0.00 2.06 0.35 80 1005.4
20260904062553 46 119 0.0 2.0 0.00 2.06 0.35 80 1005.1
20260904062053 46 109 0.0 3.0 0.00 2.06 0.35 80 1005.6
20260904061553 46 161 0.0 3.0 0.00 2.06 0.35 80 1005.4
20260904061053 46 99 0.0 3.0 0.00 2.06 0.35 80 1006.5
20260904060553 46 18 0.0 3.0 0.00 2.06 0.35 81 1005.1
20260904060053 46 89 0.0 3.0 0.00 2.06 0.35 81 1005.8
20260904055553 47 105 0.0 3.0 0.00 2.06 0.35 81 1005.1
20260904055053 47 0 0.0 6.0 0.00 2.06 0.35 80 1005.3
20260904054553 47 357 0.0 6.0 0.00 2.06 0.35 80 1005.5
20260904054053 47 86 0.0 6.0 0.00 2.06 0.35 80 1005.3
20260904053553 47 91 0.0 4.0 0.00 2.06 0.35 80 1005.3
20260904053053 47 127 0.0 4.0 0.00 2.06 0.35 80 1005.5
20260904052553 47 120 0.0 4.0 0.00 2.06 0.35 79 1005.4
20260904052053 46 47 0.0 4.0 0.00 2.06 0.35 80 1005.3
20260904051553 47 40 0.0 4.0 0.00 2.06 0.35 80 1005.5
20260904051053 47 85 0.0 1.0 0.00 2.06 0.35 80 1005.7
20260904050553 47 85 0.0 1.0 0.00 2.06 0.35 80 1005.7
20260904050053 47 135 0.0 1.0 0.00 2.06 0.35 80 1006.2
20260904045553 47 109 0.0 1.0 0.00 2.06 0.35 80 1005.5
20260904045053 47 109 0.0 2.0 0.02 2.06 0.35 79 1005.4
20260904044553 47 0 0.0 2.0 0.02 2.06 0.35 80 1005.9
20260904044053 47 109 0.0 2.0 0.02 2.04 0.35 80 1005.5
20260904043553 47 88 0.0 0.0 0.02 2.04 0.35 80 1005.4
20260904043053 47 0 0.0 3.0 0.02 2.04 0.35 80 1006.0
20260904042553 47 0 0.0 3.0 0.02 2.04 0.35 80 1005.6
20260904042053 47 107 0.0 3.0 0.02 2.04 0.35 79 1005.7
20260904041553 47 134 0.0 5.0 0.02 2.04 0.35 80 1005.4
20260904041053 47 127 0.0 5.0 0.02 2.04 0.35 80 1005.8
20260904040553 47 112 0.0 5.0 0.02 2.04 0.35 80 1005.4
20260904040053 47 106 0.0 2.0 0.03 2.04 0.35 79 1006.0
20260904035553 47 331 0.0 2.0 0.03 2.04 0.35 79 1005.7
20260904035053 47 0 0.0 0.0 0.02 2.04 0.34 79 1005.1
20260904034553 47 0 0.0 0.0 0.02 2.04 0.34 79 1005.8
20260904034053 47 331 0.0 0.0 0.04 2.02 0.33 79 1005.1
20260904033553 47 331 0.0 0.0 0.04 2.02 0.33 79 1005.6
20260904033053 47 331 0.0 0.0 0.06 2.02 0.33 80 1005.4
20260904032553 47 0 0.0 0.0 0.06 2.02 0.33 80 1004.9
20260904032053 47 126 0.0 0.0 0.06 2.02 0.33 80 1004.8
20260904031553 47 0 0.0 0.0 0.06 2.02 0.33 80 1005.3
20260904031054 47 0 0.0 0.0 0.06 2.02 0.33 80 1004.9
20260904030553 47 0 0.0 0.0 0.06 2.02 0.33 80 1005.1
20260904030053 47 0 0.0 3.0 0.05 2.02 0.33 79 1005.6
20260904025553 47 126 0.0 3.0 0.05 2.02 0.32 79 1005.1
20260904025053 47 105 0.0 3.0 0.04 2.02 0.32 79 1005.1
20260904024553 47 120 0.0 1.0 0.04 2.02 0.31 79 1005.3
20260904024055 47 0 0.0 0.0 0.04 1.99 0.31 79 1004.9
20260904023553 47 0 0.0 0.0 0.04 1.99 0.29 79 1004.9
20260904023054 47 0 0.0 4.0 0.06 1.99 0.28 79 1005.3
20260904022553 47 0 0.0 4.0 0.06 1.99 0.27 80 1004.9
20260904022055 47 127 0.0 4.0 0.09 1.99 0.27 80 1005.0
20260904021553 47 217 0.0 2.0 0.09 1.99 0.27 80 1005.0
20260904021053 47 194 0.0 4.0 0.12 1.99 0.27 79 1005.7
20260904020553 47 194 0.0 4.0 0.12 1.99 0.27 79 1005.3
20260904020053 47 176 0.0 4.0 0.12 1.99 0.27 79 1005.8
20260904015553 47 0 0.0 0.0 0.12 1.99 0.27 79 1005.3
20260904015052 47 218 0.0 2.0 0.13 1.99 0.27 79 1005.4
20260904014552 47 270 0.0 2.0 0.13 1.99 0.27 78 1004.9
20260904014052 47 278 0.0 2.0 0.14 1.86 0.27 79 1005.5
20260904013552 47 0 0.0 0.0 0.14 1.86 0.26 79 1005.1
20260904013052 47 0 0.0 4.0 0.15 1.86 0.23 79 1005.7
20260904012552 47 0 0.0 4.0 0.15 1.86 0.21 80 1005.3
20260904012052 47 228 0.0 4.0 0.16 1.86 0.21 79 1004.8
20260904011552 47 228 1.0 1.0 0.16 1.86 0.18 79 1005.8
20260904011052 47 0 0.0 0.0 0.14 1.86 0.17 79 1005.7
20260904010552 47 0 0.0 0.0 0.14 1.86 0.15 78 1005.3
20260904010052 47 236 0.0 8.0 0.15 1.86 0.15 78 1005.6
20260904005552 47 145 0.0 8.0 0.15 1.86 0.15 80 1005.5
20260904005052 47 243 1.0 8.0 0.14 1.86 0.15 79 1005.5
20260904004552 47 14 1.0 5.0 0.14 1.86 0.15 80 1006.0
20260904004052 47 79 0.0 1.0 0.12 1.72 0.14 80 1004.8
20260904003552 47 285 0.0 1.0 0.12 1.72 0.12 78 1004.7
20260904003052 47 0 0.0 2.0 0.08 1.72 0.10 79 1006.4
20260904002552 48 0 0.0 2.0 0.08 1.72 0.07 78 1004.9
20260904002052 48 228 0.0 2.0 0.10 1.72 0.04 78 1004.8
20260904001552 48 196 0.0 6.0 0.10 1.72 0.02 77 1005.3
20260904001052 48 0 0.0 6.0 0.12 1.72 0.01 78 1005.4
20260904000552 48 200 0.0 6.0 0.12 1.72 0.01 78 1004.8
20260904000052 48 210 0.0 5.0 0.17 1.72 0.00 79 1004.9
20260903235552 48 243 0.0 5.0 0.17 1.72 0.00 78 1005.0
20260903235052 48 222 0.0 5.0 0.20 1.72 0.00 79 1004.9
20260903234552 48 112 0.0 3.0 0.20 1.72 0.00 79 1005.3
20260903234053 48 277 0.0 4.0 0.21 1.72 0.00 78 1005.0
20260903233552 48 226 0.0 4.0 0.21 1.72 1.72 78 1005.7
20260903233052 48 231 0.0 4.0 0.20 1.71 1.71 73 1006.0
20260903232552 47 124 0.0 3.0 0.20 1.71 1.71 73 1005.1
20260903232052 48 229 0.0 8.0 0.14 1.66 1.66 73 1005.4
20260903231552 48 197 0.0 8.0 0.14 1.65 1.65 79 1006.5
20260903231052 48 233 2.0 8.0 0.12 1.63 1.63 78 1005.9
20260903230552 48 235 1.0 4.0 0.12 1.62 1.62 78 1006.0
20260903230052 48 0 0.0 4.0 0.06 1.60 1.60 78 1006.0
20260903225552 48 214 0.0 4.0 0.06 1.57 1.57 77 1005.5
20260903225053 48 219 0.0 3.0 0.03 1.53 1.53 74 1005.1
20260903224553 48 239 0.0 3.0 0.03 1.52 1.52 74 1005.6
20260903224052 48 165 0.0 1.0 0.01 1.52 1.52 77 1005.9
20260903223552 49 198 0.0 2.0 0.01 1.51 1.51 77 1005.9
20260903223052 48 257 0.0 2.0 0.01 1.51 1.50 71 1005.9
20260903222552 48 215 0.0 2.0 0.01 1.51 1.50 77 1006.4
20260903222052 49 229 0.0 1.0 0.01 1.51 1.50 70 1006.4
20260903221552 49 72 0.0 5.0 0.01 1.51 1.50 77 1005.3
20260903221052 48 176 0.0 5.0 0.00 1.51 1.49 71 1005.6
20260903220552 49 254 0.0 5.0 0.00 1.51 1.49 72 1005.6
20260903220052 48 308 0.0 3.0 0.00 1.51 1.49 73 1006.8
20260903215552 48 292 0.0 3.0 0.00 1.51 1.49 77 1005.6
20260903215053 49 194 0.0 9.0 0.00 1.51 1.49 77 1005.1
20260903214552 48 229 0.0 9.0 0.00 1.51 1.49 78 1006.7
20260903214052 49 229 0.0 9.0 0.00 1.60 1.49 77 1007.0
20260903213552 49 126 2.0 6.0 0.00 1.60 1.49 77 1006.6
20260903213052 49 235 0.0 6.0 0.00 1.60 1.49 78 1005.5
20260903212552 49 247 2.0 6.0 0.00 1.60 1.49 77 1005.3
20260903212053 49 229 0.0 3.0 0.00 1.60 1.49 77 1005.1
20260903211553 49 259 0.0 3.0 0.00 1.60 1.49 78 1005.4
20260903211052 49 218 1.0 8.0 0.00 1.60 1.49 78 1005.5
20260903210552 49 86 0.0 8.0 0.00 1.60 1.49 78 1005.7
20260903210052 48 105 1.0 8.0 0.01 1.60 1.49 78 1005.4
20260903205552 48 246 0.0 6.0 0.01 1.60 1.49 78 1005.5
20260903205052 48 166 0.0 6.0 0.04 1.60 1.49 78 1006.3
20260903204552 48 238 1.0 6.0 0.04 1.60 1.49 78 1006.8
20260903204052 48 204 0.0 6.0 0.04 1.71 1.49 78 1005.6
20260903203552 47 124 0.0 5.0 0.04 1.71 1.49 77 1005.6
20260903203052 48 357 0.0 5.0 0.04 1.71 1.49 77 1006.6
20260903202552 48 151 0.0 5.0 0.04 1.71 1.49 77 1004.9
20260903202052 48 102 0.0 5.0 0.04 1.71 1.49 77 1005.6
20260903201552 48 198 0.0 3.0 0.04 1.71 1.49 76 1006.4
20260903201052 48 205 0.0 5.0 0.04 1.71 1.49 78 1005.8
20260903200552 47 205 0.0 5.0 0.04 1.71 1.49 79 1005.0
20260903200053 47 193 0.0 5.0 0.03 1.71 1.49 77 1006.2
20260903195552 47 224 0.0 2.0 0.03 1.71 1.48 78 1006.0
20260903195057 47 212 0.0 6.0 0.01 1.71 1.47 78 1005.8
20260903194552 47 246 0.0 6.0 0.01 1.71 1.46 72 1005.8
20260903194052 47 217 0.0 6.0 0.02 1.84 1.45 78 1005.3
20260903193552 47 242 0.0 6.0 0.02 1.84 1.45 79 1005.3
20260903193052 47 222 0.0 7.0 0.02 1.84 1.45 78 1005.9
20260903192552 48 207 2.0 7.0 0.02 1.84 1.45 78 1005.7
20260903192052 48 193 0.0 7.0 0.02 1.84 1.45 78 1007.3
20260903191552 47 246 0.0 8.0 0.02 1.84 1.45 79 1005.5
20260903191052 47 154 0.0 8.0 0.03 1.84 1.45 79 1005.8
20260903190552 47 170 0.0 8.0 0.03 1.84 1.45 79 1006.2
20260903190052 47 221 0.0 9.0 0.03 1.84 1.45 79 1005.7
20260903185552 47 228 1.0 9.0 0.03 1.84 1.45 79 1006.5
20260903185052 47 224 0.0 9.0 0.03 1.84 1.45 79 1005.8
20260903184552 47 196 2.0 6.0 0.03 1.84 1.44 79 1005.7
20260903184053 47 190 1.0 6.0 0.06 1.92 1.44 79 1005.3
20260903183552 46 250 0.0 6.0 0.06 1.92 1.43 79 1005.4
20260903183052 47 201 0.0 9.0 0.12 1.92 1.43 80 1006.5
20260903182552 47 224 1.0 9.0 0.12 1.92 1.43 79 1006.0
20260903182052 47 198 0.0 9.0 0.25 1.92 1.43 80 1005.9
20260903181552 47 225 0.0 7.0 0.25 1.92 1.43 79 1006.4
20260903181052 46 236 2.0 6.0 0.31 1.92 1.43 79 1006.2
20260903180552 46 179 0.0 10.0 0.31 1.92 1.42 80 1006.0
20260903180052 46 200 1.0 10.0 0.31 1.92 1.42 80 1006.2
20260903175552 46 189 0.0 10.0 0.31 1.92 1.42 80 1005.7
20260903175052 45 224 0.0 8.0 0.32 1.92 1.42 79 1006.2
20260903174552 45 239 1.0 7.0 0.32 1.92 1.41 79 1006.7
20260903174052 45 259 0.0 7.0 0.29 1.70 1.40 79 1005.7
20260903173552 45 228 0.0 3.0 0.29 1.70 1.39 80 1006.3
20260903173052 45 173 2.0 4.0 0.24 1.70 1.36 80 1006.6
20260903172552 45 229 0.0 4.0 0.24 1.70 1.33 80 1005.9
20260903172052 45 233 2.0 4.0 0.11 1.70 1.27 79 1006.9
20260903171552 46 270 0.0 3.0 0.11 1.70 1.21 79 1006.3